Location: Goettingen
(51.5300°N, 9.9433°E)
Time: 17:51:17
(UTC+02:00)

ISS - Pass Details

Date: 23 May 2020
Orbit: 417 x 420 km, 51.6° (Epoch: 26 May)

Event Time Altitude Azimuth Distance (km) Brightness Sun altitude
Rises 22:17:37 0° 269° (W) 2,364 0.7 -7.7°
Reaches altitude 10° 22:19:43 10° 269° (W) 1,501 -0.3 -7.9°
Maximum altitude 22:23:05 86° 359° (N) 426 -3.7 -8.3°
Drops below altitude 10° 22:26:28 10° 88° (E) 1,503 -1.3 -8.6°
Enters shadow 22:28:04 - 89° (E) 2,162 -0.5 -8.8°
